Regional Weather Roundup
Issued by NWS

Home | Current Version | Previous Version | Text Only | Print | Product List | Glossary Off
Versions: 1 2 3 4 5 6 7 8 9 10 11 12 13 14 15 16 17 18 19 20 21 22 23 24 25 26 27 28 29 30 31 32 33 34 35 36 37 38 39 40 41 42 43 44 45 46 47 48 49 50

000
ASUS43 KIND 291909
RWRIN

WEATHER ROUNDUP FOR INDIANA
NATIONAL WEATHER SERVICE INDIANAPOLIS IN
300 PM EDT FRI MAY 29 2015

NOTE: "FAIR" INDICATES FEW OR NO CLOUDS BELOW 12,000 FEET WITH NO
SIGNIFICANT WEATHER AND/OR OBSTRUCTIONS TO VISIBILITY.

* - STATION DOES NOT REPORT WEATHER SUCH AS PRECIPITATION OR FOG.

+ - STATION NOT QUALITY CONTROLLED BY THE NATIONAL WEATHER SERVICE.
    USE DATA WITH CAUTION...ESPECIALLY DEWPOINT AND RELATIVE
    HUMIDITY OBSERVATIONS.

INZ001>003-010>013-019-020-292000-
NORTHWEST INDIANA

CITY           SKY/WX    TMP DP  RH WIND       PRES   REMARKS
GARY /AIRPORT/ PTSUNNY   81  66  61 S7        29.99F
KNOX *+        PTSUNNY   81  61  50 S18       30.01F
LA PORTE +     PTSUNNY   77  69  75 W5        30.02F
MICHIGAN CITY+ CLOUDY    75  68  78 S5        30.02F
MONTICELLO +   PTSUNNY   83  67  58 S14G22    30.02F
RENSSELAER +   MOSUNNY   82  64  54 S20       30.02F
VALPARAISO     PTSUNNY   79  69  71 S12       30.01F

$$

LMZ046-743>745-292000-
SOUTHERN LAKE MICHIGAN

STATION/POSITION TIME  TEMP    WIND        PRES    WAVE
                       AIR SEA DIR/SP/G            HT
                 (UTC) (F)     (DEG/KT/KT) (MB)    (FT)
BURNS HARBOR     1900   78     190/  7/ 12 1016.3S
MICHIGAN CITY    1900   70     260/  6/  9   N/A
5NW MICH CITY    1900   63 56   40/  2/  6   N/A     1

$$

INZ004-005-014>016-021>024-292000-
NORTH CENTRAL INDIANA

CITY           SKY/WX    TMP DP  RH WIND       PRES   REMARKS
ELKHART        MOSUNNY   82  61  47 S8G16     30.02F
GOSHEN         MOSUNNY   83  64  52 S18G25    30.02F
LOGANSPORT +   PTSUNNY   84  55  37 S16       30.04F
PERU/GRISSOM   MOSUNNY   85  65  50 S18       30.03F
ROCHESTER +    MOSUNNY   84  64  51 S12       30.04F
SOUTH BEND     PTSUNNY   81  63  54 S16G24    30.02F
WARSAW +       MOSUNNY   82  64  54 S6        30.04F

$$

INZ006>009-017-018-025>027-292000-
NORTHEAST INDIANA

CITY           SKY/WX    TMP DP  RH WIND       PRES   REMARKS
ANGOLA *+      MOSUNNY   84  81  89 S10       30.06F HX  98
AUBURN +       MOSUNNY   82  61  47 SW8       30.07F
FORT WAYNE     PTSUNNY   83  64  52 SW12      30.06F
HUNTINGTON +   PTSUNNY   82  63  53 S8G16     30.05F

$$

INZ028-029-035-036-043>045-051>053-292000-
WEST CENTRAL INDIANA

CITY           SKY/WX    TMP DP  RH WIND       PRES   REMARKS
CRAWFORDSVL +  PTSUNNY   81  58  45 S17       30.05F
GREENCASTLE +  MOSUNNY   79  63  57 S9G16     30.08F
LAFAYETTE      MOSUNNY   82  62  50 SW8G24    30.02F
TERRE HAUTE    MOSUNNY   84  67  56 S15G21    30.05F

$$

INZ030>032-037>040-046>048-054>057-064-065-292000-
CENTRAL INDIANA

CITY           SKY/WX    TMP DP  RH WIND       PRES   REMARKS
ANDERSON       PTSUNNY   73  64  73 CALM      30.09
CP ATTERBURY + PTSUNNY   79  64  61 SW13      30.10S
COLUMBUS       PTSUNNY   81  64  57 S15G21    30.09F
FISHERS *+     CLOUDY    81  68  65 S14G21    30.07F
FRANKFORT +    MOSUNNY   85  63  47 S12G21    30.06F
GREENWOOD *+   MOSUNNY   84  61  45 S13G21    30.08F
INDIANAPOLIS   PTSUNNY   83  65  54 S16       30.06F
-EAGLE CREEK   MOSUNNY   82  66  58 S12G20    30.06F
KOKOMO *+      CLOUDY    79  66  65 SW20G31   30.06S
MARION +       PTSUNNY   83  60  45 S14G22    30.07F
MT COMFORT *+  MOSUNNY   81  55  41 SW13      30.08F
SHELBYVILLE    MOSUNNY   86  64  47 S20G25    30.07F
ZIONSVILLE +   MOSUNNY   85  62  46 SW12G21   30.07F

$$

INZ033-034-041-042-049-050-058-059-292000-
EAST CENTRAL INDIANA

CITY           SKY/WX    TMP DP  RH WIND       PRES   REMARKS
MUNCIE         HVY RAIN  73  69  87 W15G25    30.08F FOG

$$

INZ060-061-067>069-081>083-085>088-292000-
SOUTHWEST INDIANA

CITY           SKY/WX    TMP DP  RH WIND       PRES   REMARKS
EVANSVILLE     MOSUNNY   81  67  62 S8        30.08F
HUNTINGBURG *+ CLOUDY    81  66  61 S12       30.10F
WASHINGTON +   PTSUNNY   81  63  54 S13       30.07F

$$

INZ062-063-066-070>080-084-089>092-292000-
SOUTH CENTRAL AND SOUTHEAST INDIANA

CITY           SKY/WX    TMP DP  RH WIND       PRES   REMARKS
BLOOMINGTON    MOSUNNY   81  67  62 S13       30.09F
MADISON *+     MOSUNNY   82  61  47 S10       30.13F
NORTH VERNON + PTSUNNY   81  66  61 S14       30.11F
SEYMOUR +      MOSUNNY   86  63  45 S14G24    30.09F

$$




USA.gov is the U.S. government's official web portal to all federal, state and local government web resources and services.